COSMOS 1953

Last updated on Sun Jun 21 2026 00:02:15 GMT+0000 (Coordinated Universal Time)

1 19210U 88050A 26171.41963748 .00006304 00000+0 21544-3 0 9994 2 19210 82.5073 54.7747 0012301 116.3180 243.9325 15.30015132 53480
UTC large
Height (km)
Speed (km/s)
/
Latitude / Longitude
Inclination (degrees)
Orbital Period (minutes)
Azimuth
Elevation
Range (km)
Doppler Factor

Next 0 passes for location: London (51.5072 / 0.1276)

No passes found over London.
COSMOS 1953